< Cyclone 198514 1985 Season Cyclone 198516 >
Cyclone 198515 (TANYA)
General InformationTrack Information on Google MapsList of All Images || ResourceGoogle EarthGE AnimationAtom FeedGeoJSON
Detalied Best Track (Time Zone = UTC)
Year Month Day Hour Lat. Long. Pressure (hPa) Wind (kt) Class Image Chart
1985 3 27 06 -13.1 151.5 1003 0 0 Image --
1985 3 27 12 -13.0 151.4 1003 0 0 Image --
1985 3 27 18 -12.9 151.2 1003 0 0 Image --
1985 3 28 00 -12.8 151.0 1002 0 0 Image --
1985 3 28 06 -12.7 150.8 1000 0 0 Image --
1985 3 28 12 -12.8 150.6 1000 0 0 Image --
1985 3 28 18 -12.8 150.2 1000 0 0 Image --
1985 3 29 00 -13.1 149.8 999 0 0 Image --
1985 3 29 06 -13.3 149.3 995 0 0 Image --
1985 3 29 12 -13.5 148.8 993 0 0 Image --
1985 3 29 18 -13.7 148.3 990 0 0 Image --
1985 3 30 00 -13.7 147.8 986 0 0 Image --
1985 3 30 06 -13.6 147.4 982 0 0 Image --
1985 3 30 12 -13.5 146.9 982 0 0 Image --
1985 3 30 18 -13.4 146.5 982 0 0 Image --
1985 3 31 00 -13.2 145.9 982 0 0 Image --
1985 3 31 06 -13.1 145.3 982 0 0 Image --
1985 3 31 12 -13.1 144.9 986 0 0 Image --
1985 3 31 18 -13.4 144.4 990 0 0 Image --
1985 4 1 00 -13.8 144.0 995 0 0 Image --
1985 4 1 06 -14.3 143.6 999 0 0 Image --
1985 4 1 09 -14.5 143.4 1000 0 0 Image --
1985 4 1 12 -14.7 143.2 1001 0 0 Image --
1985 4 1 18 -15.1 142.8 1003 0 0 Image --
< Cyclone 198514 1985 Season Cyclone 198516 >

Help